EW7307 Weather Reports


Display with metric or nautical units.
time (UTC)temp
F
wind
direction
speed
MPH
gust
MPH
rain 1hr
in
rain 24hr
in
rain mn
in
humidity
%
barometer
mb
20260504120310 65 81 5.0 10.0 0.00 0.00 0.00 78 1010.6
20260504120230 65 71 4.0 10.0 0.00 0.00 0.00 80 1010.7
20260504110641 65 333 3.0 7.0 0.00 0.00 0.00 79 1011.3
20260504110630 62 286 2.0 4.0 0.00 0.00 0.00 83 1012.0
20260504110544 65 337 2.0 6.0 0.00 0.00 0.00 78 1011.3
20260504110501 64 9 2.0 6.0 0.00 0.00 0.00 78 1011.3
20260504110417 64 13 2.0 6.0 0.00 0.00 0.00 77 1011.5
20260504110336 64 51 3.0 6.0 0.00 0.00 0.00 78 1011.6
20260504110254 64 325 3.0 6.0 0.00 0.00 0.00 79 1011.5
20260504100604 62 44 2.0 6.0 0.00 0.00 0.00 86 1012.0
20260504100508 62 111 2.0 6.0 0.00 0.00 0.00 86 1012.1
20260504100317 62 71 2.0 6.0 0.00 0.00 0.00 86 1012.1
20260504100238 61 67 2.0 3.0 0.00 0.00 0.00 87 1012.3
20260504100211 61 9 2.0 6.0 0.00 0.00 0.00 85 1012.1
20260504100147 61 190 2.0 3.0 0.00 0.00 0.00 87 1012.3
20260504100115 62 34 4.0 6.0 0.00 0.00 0.00 86 1012.1
20260504090137 60 76 1.0 4.0 0.00 0.00 0.00 87 1012.2
20260504081956 60 123 1.0 3.0 0.00 0.00 0.00 89 1012.4
20260504081939 58 313 1.0 3.0 0.00 0.00 0.00 93 1012.4
20260504081854 60 111 1.0 3.0 0.00 0.00 0.00 89 1012.4
20260504081757 60 44 1.0 3.0 0.00 0.00 0.00 89 1012.4
20260504081747 58 178 1.0 3.0 0.00 0.00 0.00 93 1012.4
20260504081653 60 108 1.0 3.0 0.00 0.00 0.00 89 1012.4
20260504081558 60 93 1.0 3.0 0.00 0.00 0.00 89 1012.4
20260504081516 60 83 2.0 3.0 0.00 0.00 0.00 90 1012.4
20260504081434 60 146 2.0 3.0 0.00 0.00 0.00 90 1012.4
20260504081248 60 149 1.0 3.0 0.00 0.00 0.00 90 1012.4
20260504081200 59 161 1.0 3.0 0.00 0.00 0.00 90 1012.4
20260504081118 59 111 2.0 3.0 0.00 0.00 0.00 90 1012.4
20260504081031 59 142 2.0 3.0 0.00 0.00 0.00 90 1012.4
20260504080950 59 129 1.0 3.0 0.00 0.00 0.00 90 1012.4
20260504080726 59 93 1.0 3.0 0.00 0.00 0.00 91 1012.4
20260504080532 57 265 1.0 4.0 0.00 0.00 0.00 93 1012.4
20260504080438 59 111 2.0 3.0 0.00 0.00 0.00 91 1012.4
20260504080341 59 131 2.0 3.0 0.00 0.00 0.00 91 1012.4
20260504080259 59 110 2.0 3.0 0.00 0.00 0.00 91 1012.4
20260504080218 59 59 2.0 3.0 0.00 0.00 0.00 91 1012.4
20260504080135 59 80 2.0 3.0 0.00 0.00 0.00 91 1012.3
20260504070411 56 301 2.0 4.0 0.00 0.00 0.00 93 1012.4
20260504070332 56 234 1.0 4.0 0.00 0.00 0.00 93 1012.4
20260504070104 56 265 2.0 4.0 0.00 0.00 0.00 93 1012.4
20260504060204 53 229 1.0 3.0 0.00 0.00 0.00 92 1011.9
20260504050703 52 232 0.0 2.0 0.00 0.00 0.00 91 1011.5
20260504050624 52 232 0.0 2.0 0.00 0.00 0.00 91 1011.3
20260504050408 52 221 1.0 3.0 0.00 0.00 0.00 91 1011.5
20260504050330 52 221 1.0 3.0 0.00 0.00 0.00 91 1011.3
20260504050247 52 178 1.0 3.0 0.00 0.00 0.00 91 1011.3
20260504050014 52 212 1.0 3.0 0.00 0.00 0.00 91 1011.3
20260504045727 52 215 2.0 3.0 0.00 0.00 0.00 91 1011.3
20260504045624 52 208 2.0 3.0 0.00 0.00 0.00 91 1011.3
20260504045558 52 221 1.0 2.0 0.00 0.00 0.00 91 1011.5
20260504045523 52 208 2.0 3.0 0.00 0.00 0.00 91 1011.3
20260504045341 52 229 1.0 2.0 0.00 0.00 0.00 91 1011.3
20260504045301 52 221 1.0 2.0 0.00 0.00 0.00 91 1011.3
20260504045018 52 235 0.0 2.0 0.00 0.00 0.00 91 1011.3
20260504044915 52 178 1.0 2.0 0.00 0.00 0.00 91 1011.3
20260504044814 52 205 1.0 2.0 0.00 0.00 0.00 91 1011.3
20260504044716 52 232 1.0 2.0 0.00 0.00 0.00 91 1011.3
20260504044613 52 221 0.0 2.0 0.00 0.00 0.00 91 1011.3
20260504044524 52 232 0.0 2.0 0.00 0.00 0.00 91 1011.5
20260504044410 52 137 1.0 2.0 0.00 0.00 0.00 91 1011.3
20260504044345 52 93 0.0 2.0 0.00 0.00 0.00 91 1011.3
20260504044308 52 137 1.0 2.0 0.00 0.00 0.00 91 1011.5
20260504044210 52 126 1.0 2.0 0.00 0.00 0.00 91 1011.5
20260504044128 52 137 1.0 2.0 0.00 0.00 0.00 91 1011.5
20260504044046 52 129 1.0 2.0 0.00 0.00 0.00 91 1011.5
20260504044004 52 131 1.0 2.0 0.00 0.00 0.00 91 1011.5
20260504043802 52 178 1.0 2.0 0.00 0.00 0.00 91 1011.6
20260504043702 52 137 1.0 2.0 0.00 0.00 0.00 91 1011.5
20260504043601 52 190 1.0 2.0 0.00 0.00 0.00 91 1011.6
20260504043512 52 205 1.0 2.0 0.00 0.00 0.00 91 1011.6
20260504043432 52 205 1.0 2.0 0.00 0.00 0.00 91 1011.5
20260504043348 52 162 1.0 2.0 0.00 0.00 0.00 91 1011.5
20260504043152 52 243 1.0 2.0 0.00 0.00 0.00 91 1011.5
20260504043113 52 212 0.0 2.0 0.00 0.00 0.00 91 1011.3
20260504043032 52 232 0.0 2.0 0.00 0.00 0.00 91 1011.3
20260504042744 52 265 0.0 2.0 0.00 0.00 0.00 91 1011.3
20260504042733 52 238 0.0 2.0 0.00 0.00 0.00 91 1011.2
20260504042652 52 265 1.0 2.0 0.00 0.00 0.00 91 1011.3
20260504042522 52 196 1.0 2.0 0.00 0.00 0.00 91 1011.2
20260504042316 52 212 1.0 2.0 0.00 0.00 0.00 91 1011.1
20260504042234 52 51 1.0 2.0 0.00 0.00 0.00 91 1011.2
20260504042132 52 221 1.0 2.0 0.00 0.00 0.00 91 1011.2
20260504042111 52 205 0.0 1.0 0.00 0.00 0.00 91 1011.0
20260504042053 52 93 0.0 2.0 0.00 0.00 0.00 91 1011.0
20260504042032 52 221 1.0 2.0 0.00 0.00 0.00 91 1011.2
20260504041929 52 178 1.0 2.0 0.00 0.00 0.00 91 1011.2
20260504041832 52 196 1.0 2.0 0.00 0.00 0.00 91 1011.2
20260504041820 52 93 0.0 2.0 0.00 0.00 0.00 91 1011.1
20260504041742 52 190 1.0 2.0 0.00 0.00 0.00 91 1011.2
20260504041649 52 205 1.0 2.0 0.00 0.00 0.00 91 1011.3
20260504041604 52 221 1.0 2.0 0.00 0.00 0.00 91 1011.2
20260504041321 52 215 1.0 2.0 0.00 0.00 0.00 91 1011.2
20260504041242 52 221 0.0 2.0 0.00 0.00 0.00 91 1011.2
20260504041202 52 221 0.0 2.0 0.00 0.00 0.00 91 1011.2
20260504041126 52 238 0.0 2.0 0.00 0.00 0.00 91 1011.1
20260504040848 52 265 0.0 2.0 0.00 0.00 0.00 91 1011.2
20260504040636 52 212 1.0 2.0 0.00 0.00 0.00 91 1011.1
20260504040553 52 212 1.0 2.0 0.00 0.00 0.00 91 1011.1
20260504040509 52 205 1.0 2.0 0.00 0.00 0.00 91 1011.1
20260504040427 52 178 1.0 2.0 0.00 0.00 0.00 91 1011.0
20260504035949 52 275 1.0 3.0 0.00 0.00 0.00 91 1011.2
20260504035932 52 93 0.0 2.0 0.00 0.00 0.00 91 1011.0
20260504035833 52 93 0.0 2.0 0.00 0.00 0.00 91 1011.0
20260504035728 52 93 0.0 2.0 0.00 0.00 0.00 91 1011.0
20260504035636 52 93 1.0 2.0 0.00 0.00 0.00 91 1011.0
20260504035555 52 93 0.0 2.0 0.00 0.00 0.00 91 1011.1
20260504035317 52 111 0.0 2.0 0.00 0.00 0.00 91 1011.1
20260504035215 52 221 0.0 2.0 0.00 0.00 0.00 91 1011.2
20260504035112 52 205 0.0 3.0 0.00 0.00 0.00 91 1011.2
20260504035015 52 205 0.0 3.0 0.00 0.00 0.00 91 1011.1
20260504034926 52 238 0.0 3.0 0.00 0.00 0.00 91 1011.1
20260504034845 52 275 1.0 3.0 0.00 0.00 0.00 91 1011.2
20260504034653 52 137 1.0 2.0 0.00 0.00 0.00 90 1010.8
20260504034606 52 265 1.0 3.0 0.00 0.00 0.00 91 1011.2
20260504034526 52 234 1.0 3.0 0.00 0.00 0.00 91 1011.1
20260504034441 52 221 2.0 3.0 0.00 0.00 0.00 91 1011.1
20260504034355 52 212 2.0 3.0 0.00 0.00 0.00 91 1011.1
20260504034200 52 205 2.0 3.0 0.00 0.00 0.00 91 1011.0
20260504034136 52 123 1.0 2.0 0.00 0.00 0.00 90 1010.9
20260504034100 52 188 2.0 3.0 0.00 0.00 0.00 90 1011.0
20260504033958 52 221 1.0 3.0 0.00 0.00 0.00 90 1011.0
20260504033857 52 200 1.0 2.0 0.00 0.00 0.00 90 1011.0
20260504033757 52 196 1.0 2.0 0.00 0.00 0.00 90 1011.0
20260504033654 52 178 1.0 2.0 0.00 0.00 0.00 90 1010.9
20260504033554 52 190 1.0 2.0 0.00 0.00 0.00 90 1010.9
20260504033453 52 200 1.0 2.0 0.00 0.00 0.00 90 1011.0
20260504033436 52 232 0.0 2.0 0.00 0.00 0.00 90 1011.0
20260504033412 52 265 1.0 2.0 0.00 0.00 0.00 90 1010.9
20260504033351 52 212 1.0 2.0 0.00 0.00 0.00 90 1011.0
20260504033251 52 178 1.0 2.0 0.00 0.00 0.00 90 1010.9
20260504033150 52 196 0.0 2.0 0.00 0.00 0.00 90 1010.9
20260504033048 52 205 0.0 2.0 0.00 0.00 0.00 90 1010.9
20260504033028 52 282 1.0 2.0 0.00 0.00 0.00 90 1010.8
20260504032954 52 93 0.0 2.0 0.00 0.00 0.00 90 1010.9
20260504032915 52 93 0.0 2.0 0.00 0.00 0.00 90 1010.8
20260504032840 52 119 0.0 2.0 0.00 0.00 0.00 90 1010.8
20260504032807 52 119 0.0 2.0 0.00 0.00 0.00 90 1010.9
20260504032548 52 93 1.0 2.0 0.00 0.00 0.00 90 1010.9
20260504032320 52 137 1.0 2.0 0.00 0.00 0.00 90 1010.9
20260504032039 52 129 1.0 2.0 0.00 0.00 0.00 90 1010.9
20260504031938 52 119 1.0 2.0 0.00 0.00 0.00 90 1010.9
20260504031836 52 93 1.0 2.0 0.00 0.00 0.00 90 1010.9
20260504031737 52 93 0.0 2.0 0.00 0.00 0.00 90 1010.9
20260504031635 52 67 0.0 2.0 0.00 0.00 0.00 90 1010.9
20260504031534 52 93 1.0 2.0 0.00 0.00 0.00 90 1011.0
20260504031436 52 319 0.0 2.0 0.00 0.00 0.00 90 1011.0
20260504031334 52 22 0.0 2.0 0.00 0.00 0.00 90 1011.1
20260504031232 52 221 0.0 2.0 0.00 0.00 0.00 90 1011.0
20260504031141 52 221 0.0 2.0 0.00 0.00 0.00 90 1011.0
20260504031102 52 205 0.0 2.0 0.00 0.00 0.00 90 1011.0
20260504031024 52 212 0.0 2.0 0.00 0.00 0.00 90 1011.0
20260504030941 52 265 0.0 2.0 0.00 0.00 0.00 90 1011.1
20260504030859 52 221 1.0 2.0 0.00 0.00 0.00 90 1011.1
20260504030825 52 212 1.0 2.0 0.00 0.00 0.00 90 1011.0
20260504030746 52 247 0.0 2.0 0.00 0.00 0.00 90 1011.0
20260504030219 52 265 1.0 2.0 0.00 0.00 0.00 90 1010.8
20260504030118 52 265 1.0 2.0 0.00 0.00 0.00 90 1010.8
20260504030017 52 325 0.0 2.0 0.00 0.00 0.00 90 1010.7
20260504025916 52 338 0.0 2.0 0.00 0.00 0.00 90 1010.8
20260504025815 52 265 0.0 2.0 0.00 0.00 0.00 90 1010.7
20260504025731 52 265 1.0 2.0 0.00 0.00 0.00 90 1010.8
20260504025652 52 298 1.0 2.0 0.00 0.00 0.00 90 1010.8
20260504025409 52 279 1.0 2.0 0.00 0.00 0.00 90 1010.9
20260504025321 52 212 1.0 2.0 0.00 0.00 0.00 90 1010.9
20260504025245 52 238 0.0 2.0 0.00 0.00 0.00 90 1011.0
20260504025203 52 221 1.0 2.0 0.00 0.00 0.00 90 1010.9
20260504025004 52 221 1.0 2.0 0.00 0.00 0.00 90 1010.9
20260504024904 52 309 2.0 2.0 0.00 0.00 0.00 90 1010.8
20260504024804 52 301 1.0 2.0 0.00 0.00 0.00 90 1010.8
20260504024700 52 329 1.0 2.0 0.00 0.00 0.00 90 1010.9
20260504024600 52 9 0.0 2.0 0.00 0.00 0.00 90 1010.9
20260504024459 52 265 1.0 2.0 0.00 0.00 0.00 90 1010.9
20260504024355 52 221 1.0 2.0 0.00 0.00 0.00 90 1010.9
20260504024257 52 221 1.0 2.0 0.00 0.00 0.00 90 1010.9
20260504024242 53 295 1.0 2.0 0.00 0.00 0.00 89 1011.2
20260504024158 52 209 1.0 2.0 0.00 0.00 0.00 90 1010.9
20260504024142 53 298 0.0 2.0 0.00 0.00 0.00 89 1011.1
20260504024121 53 265 0.0 2.0 0.00 0.00 0.00 89 1011.1
20260504024054 52 217 1.0 2.0 0.00 0.00 0.00 90 1010.9
20260504024025 53 178 1.0 2.0 0.00 0.00 0.00 89 1011.1
20260504023954 52 221 0.0 2.0 0.00 0.00 0.00 90 1010.8
20260504023848 52 193 0.0 1.0 0.00 0.00 0.00 90 1010.9
20260504023757 52 137 0.0 1.0 0.00 0.00 0.00 90 1010.9
20260504023720 52 178 0.0 2.0 0.00 0.00 0.00 90 1010.9
20260504023635 52 111 0.0 3.0 0.00 0.00 0.00 90 1010.9
20260504023441 52 111 0.0 3.0 0.00 0.00 0.00 90 1010.9
20260504023344 52 137 0.0 3.0 0.00 0.00 0.00 90 1010.9
20260504023333 53 137 2.0 3.0 0.00 0.00 0.00 89 1011.1
20260504023253 53 178 1.0 2.0 0.00 0.00 0.00 89 1011.2
20260504023240 52 221 0.0 3.0 0.00 0.00 0.00 90 1010.9
20260504023157 53 205 0.0 2.0 0.00 0.00 0.00 89 1011.3
20260504023140 52 178 1.0 3.0 0.00 0.00 0.00 90 1010.9
20260504023034 52 126 1.0 3.0 0.00 0.00 0.00 90 1010.9
20260504022932 52 126 0.0 3.0 0.00 0.00 0.00 90 1011.0
20260504022832 52 144 1.0 3.0 0.00 0.00 0.00 90 1011.0
20260504022747 52 146 1.0 3.0 0.00 0.00 0.00 90 1011.0
20260504022708 52 144 1.0 3.0 0.00 0.00 0.00 90 1011.0
20260504022429 53 205 1.0 3.0 0.00 0.00 0.00 90 1011.1
20260504022418 53 153 1.0 3.0 0.00 0.00 0.00 89 1011.3
20260504022324 53 153 1.0 3.0 0.00 0.00 0.00 90 1011.1
20260504022223 53 168 1.0 3.0 0.00 0.00 0.00 90 1011.2
20260504022120 53 196 1.0 3.0 0.00 0.00 0.00 90 1011.1
20260504022022 53 212 1.0 3.0 0.00 0.00 0.00 90 1011.1
20260504022009 54 123 1.0 3.0 0.00 0.00 0.00 89 1011.1
20260504021919 53 205 1.0 3.0 0.00 0.00 0.00 90 1011.1
20260504021819 53 205 1.0 3.0 0.00 0.00 0.00 90 1011.1
20260504021719 53 209 1.0 3.0 0.00 0.00 0.00 90 1011.2
20260504021617 53 205 2.0 3.0 0.00 0.00 0.00 90 1011.2
20260504021516 53 185 2.0 3.0 0.00 0.00 0.00 90 1011.2
20260504021451 54 193 1.0 3.0 0.00 0.00 0.00 88 1011.2
20260504021416 53 178 1.0 2.0 0.00 0.00 0.00 90 1011.2
20260504021317 53 193 1.0 2.0 0.00 0.00 0.00 90 1011.3
20260504021233 53 165 1.0 2.0 0.00 0.00 0.00 90 1011.2
20260504021153 53 178 1.0 2.0 0.00 0.00 0.00 89 1011.2
20260504020928 53 168 0.0 2.0 0.00 0.00 0.00 90 1011.2
20260504020851 53 161 0.0 1.0 0.00 0.00 0.00 89 1011.3
20260504020809 53 161 0.0 2.0 0.00 0.00 0.00 89 1011.2
20260504020602 53 161 0.0 2.0 0.00 0.00 0.00 89 1011.2
20260504020501 53 161 0.0 2.0 0.00 0.00 0.00 89 1011.2
20260504020421 54 305 2.0 3.0 0.00 0.00 0.00 87 1011.3
20260504020358 53 178 0.0 2.0 0.00 0.00 0.00 89 1011.2
20260504020259 53 9 0.0 2.0 0.00 0.00 0.00 89 1011.2
20260504020157 53 9 0.0 2.0 0.00 0.00 0.00 89 1011.3
20260504020104 53 9 0.0 2.0 0.00 0.00 0.00 89 1011.3
20260504015950 53 325 0.0 2.0 0.00 0.00 0.00 89 1011.3
20260504015926 54 221 1.0 2.0 0.00 0.00 0.00 87 1011.2
20260504015850 53 238 0.0 2.0 0.00 0.00 0.00 89 1011.3
20260504015748 53 221 1.0 2.0 0.00 0.00 0.00 89 1011.3
20260504015730 54 200 1.0 2.0 0.00 0.00 0.00 87 1011.2
20260504015647 53 178 1.0 2.0 0.00 0.00 0.00 89 1011.3
20260504015546 53 168 1.0 2.0 0.00 0.00 0.00 90 1011.3
20260504015446 53 178 1.0 2.0 0.00 0.00 0.00 90 1011.3
20260504015353 53 196 0.0 2.0 0.00 0.00 0.00 90 1011.3
20260504015308 53 247 0.0 2.0 0.00 0.00 0.00 90 1011.2
20260504015237 53 265 0.0 2.0 0.00 0.00 0.00 90 1011.3
20260504015157 53 247 1.0 2.0 0.00 0.00 0.00 89 1011.2
20260504015116 53 298 1.0 2.0 0.00 0.00 0.00 89 1011.1
20260504015036 53 291 2.0 2.0 0.00 0.00 0.00 89 1011.2
20260504014809 53 301 1.0 2.0 0.00 0.00 0.00 89 1011.0
20260504014407 53 221 0.0 2.0 0.00 0.00 0.00 89 1011.1
20260504014123 53 178 0.0 3.0 0.00 0.00 0.00 89 1011.1
20260504014054 55 265 0.0 2.0 0.00 0.00 0.00 86 1011.3
20260504014024 53 144 1.0 3.0 0.00 0.00 0.00 89 1011.1
20260504013947 53 178 1.0 3.0 0.00 0.00 0.00 89 1011.2
20260504013904 53 193 1.0 3.0 0.00 0.00 0.00 89 1011.2
20260504013636 53 168 1.0 3.0 0.00 0.00 0.00 89 1011.1
20260504013553 53 153 1.0 3.0 0.00 0.00 0.00 89 1011.1
20260504013515 53 142 1.0 3.0 0.00 0.00 0.00 89 1011.2
20260504013433 53 137 1.0 3.0 0.00 0.00 0.00 89 1011.1
20260504013212 53 178 1.0 3.0 0.00 0.00 0.00 89 1011.2
20260504012949 53 178 1.0 2.0 0.00 0.00 0.00 89 1011.3
20260504012708 53 221 0.0 2.0 0.00 0.00 0.00 89 1011.3
20260504012606 53 93 0.0 2.0 0.00 0.00 0.00 89 1011.2
20260504012500 53 93 0.0 2.0 0.00 0.00 0.00 89 1011.2
20260504012449 55 51 0.0 2.0 0.00 0.00 0.00 86 1011.3
20260504012359 53 93 0.0 2.0 0.00 0.00 0.00 89 1011.2
20260504012259 53 93 1.0 2.0 0.00 0.00 0.00 89 1011.1
20260504012155 53 126 1.0 2.0 0.00 0.00 0.00 89 1011.2
20260504012101 53 153 1.0 3.0 0.00 0.00 0.00 89 1011.1
20260504012044 55 205 0.0 1.0 0.00 0.00 0.00 85 1011.6
20260504011953 53 146 1.0 3.0 0.00 0.00 0.00 89 1011.1
20260504011912 53 137 1.0 3.0 0.00 0.00 0.00 89 1011.2
20260504011827 53 178 1.0 3.0 0.00 0.00 0.00 89 1011.2
20260504011548 53 168 1.0 3.0 0.00 0.00 0.00 89 1011.3
20260504011536 55 265 0.0 1.0 0.00 0.00 0.00 85 1011.6
20260504011513 55 265 0.0 1.0 0.00 0.00 0.00 85 1011.6
20260504011445 53 221 1.0 3.0 0.00 0.00 0.00 89 1011.3
20260504011337 53 282 1.0 3.0 0.00 0.00 0.00 89 1011.3
20260504011236 54 319 2.0 3.0 0.00 0.00 0.00 89 1011.3
20260504011211 56 238 1.0 2.0 0.00 0.00 0.00 85 1011.6
20260504011133 54 286 2.0 3.0 0.00 0.00 0.00 89 1011.3
20260504011042 54 287 2.0 3.0 0.00 0.00 0.00 89 1011.2
20260504011009 56 282 1.0 2.0 0.00 0.00 0.00 85 1011.7
20260504010931 54 282 1.0 3.0 0.00 0.00 0.00 89 1011.2
20260504010846 54 291 0.0 3.0 0.00 0.00 0.00 89 1011.2
20260504010802 54 205 1.0 3.0 0.00 0.00 0.00 89 1011.2
20260504010714 54 161 1.0 3.0 0.00 0.00 0.00 89 1011.1
20260504010451 54 123 1.0 3.0 0.00 0.00 0.00 89 1011.2
20260504010409 54 137 1.0 3.0 0.00 0.00 0.00 88 1011.1
20260504010215 54 161 1.0 3.0 0.00 0.00 0.00 88 1011.1
20260504010149 56 265 0.0 2.0 0.00 0.00 0.00 85 1011.7
20260504010121 54 137 1.0 2.0 0.00 0.00 0.00 88 1011.2
20260504010021 54 158 1.0 3.0 0.00 0.00 0.00 88 1011.2
20260504005914 54 221 0.0 3.0 0.00 0.00 0.00 88 1011.2
20260504005815 54 178 0.0 3.0 0.00 0.00 0.00 88 1011.2
20260504005707 54 178 0.0 3.0 0.00 0.00 0.00 88 1011.2
20260504005603 54 178 1.0 3.0 0.00 0.00 0.00 88 1011.2
20260504005528 56 221 0.0 1.0 0.00 0.00 0.00 84 1011.8
20260504005458 54 153 1.0 3.0 0.00 0.00 0.00 88 1011.2
20260504005446 56 221 0.0 1.0 0.00 0.00 0.00 84 1011.8
20260504005414 54 178 1.0 3.0 0.00 0.00 0.00 88 1011.3
20260504005333 54 190 1.0 3.0 0.00 0.00 0.00 88 1011.2
20260504005053 54 178 1.0 4.0 0.00 0.00 0.00 88 1011.2
20260504005013 54 153 1.0 4.0 0.00 0.00 0.00 88 1011.3
20260504004931 54 162 1.0 4.0 0.00 0.00 0.00 88 1011.3
20260504004644 54 205 1.0 4.0 0.00 0.00 0.00 87 1011.3
20260504004544 54 178 1.0 4.0 0.00 0.00 0.00 87 1011.3
20260504004442 54 238 1.0 4.0 0.00 0.00 0.00 87 1011.5
20260504004348 54 287 2.0 4.0 0.00 0.00 0.00 87 1011.5
20260504004301 54 279 2.0 4.0 0.00 0.00 0.00 87 1011.3
20260504004221 54 300 2.0 3.0 0.00 0.00 0.00 87 1011.3
20260504003938 54 303 1.0 2.0 0.00 0.00 0.00 87 1011.3
20260504003836 54 330 1.0 2.0 0.00 0.00 0.00 87 1011.3
20260504003805 58 291 1.0 2.0 0.00 0.00 0.00 83 1011.9
20260504003736 54 325 0.0 2.0 0.00 0.00 0.00 87 1011.2
20260504003635 54 309 0.0 2.0 0.00 0.00 0.00 87 1011.2
20260504003532 54 221 0.0 2.0 0.00 0.00 0.00 87 1011.2
20260504003431 54 205 1.0 2.0 0.00 0.00 0.00 87 1011.2
20260504003351 54 193 1.0 2.0 0.00 0.00 0.00 87 1011.1
20260504003306 54 205 1.0 2.0 0.00 0.00 0.00 87 1011.1
20260504003224 54 221 1.0 2.0 0.00 0.00 0.00 87 1011.1
20260504003142 54 178 1.0 2.0 0.00 0.00 0.00 87 1011.1
20260504003059 54 137 0.0 2.0 0.00 0.00 0.00 87 1011.1
20260504002716 54 193 2.0 2.0 0.00 0.00 0.00 87 1011.2
20260504002618 54 178 1.0 2.0 0.00 0.00 0.00 87 1011.2
20260504002521 54 170 1.0 2.0 0.00 0.00 0.00 87 1011.2
20260504002441 54 178 1.0 2.0 0.00 0.00 0.00 87 1011.3
20260504002200 54 178 1.0 2.0 0.00 0.00 0.00 87 1011.2
20260504002058 54 178 1.0 2.0 0.00 0.00 0.00 87 1011.3
20260504002028 58 178 1.0 2.0 0.00 0.00 0.00 82 1011.9
20260504001957 54 196 1.0 2.0 0.00 0.00 0.00 87 1011.2
20260504001858 55 212 1.0 2.0 0.00 0.00 0.00 86 1011.2
20260504001844 58 137 1.0 2.0 0.00 0.00 0.00 82 1011.8
20260504001754 55 205 1.0 2.0 0.00 0.00 0.00 86 1011.2
20260504001658 55 193 1.0 2.0 0.00 0.00 0.00 86 1011.2
20260504001644 59 93 2.0 2.0 0.00 0.00 0.00 82 1011.8
20260504001556 55 221 2.0 2.0 0.00 0.00 0.00 86 1011.2
20260504001448 55 221 2.0 2.0 0.00 0.00 0.00 86 1011.3
20260504001356 55 205 1.0 2.0 0.00 0.00 0.00 86 1011.3
20260504001313 55 171 1.0 2.0 0.00 0.00 0.00 86 1011.2
20260504001228 55 193 0.0 2.0 0.00 0.00 0.00 86 1011.3
20260504001147 55 282 0.0 2.0 0.00 0.00 0.00 86 1011.3
20260504000932 55 221 1.0 2.0 0.00 0.00 0.00 86 1011.3
20260504000723 55 212 1.0 2.0 0.00 0.00 0.00 86 1011.3
20260504000635 55 165 1.0 2.0 0.00 0.00 0.00 86 1011.5
20260504000553 55 137 0.0 1.0 0.00 0.00 0.00 86 1011.3
20260504000504 55 153 0.0 2.0 0.00 0.00 0.00 86 1011.3
20260504000317 55 212 0.0 2.0 0.00 0.00 0.00 86 1011.3
20260504000219 55 238 0.0 2.0 0.00 0.00 0.00 86 1011.3
20260504000157 59 341 1.0 3.0 0.00 0.00 0.00 82 1011.9
20260504000122 55 238 0.0 2.0 0.00 0.00 0.00 86 1011.3
20260504000023 55 137 0.0 2.0 0.00 0.00 0.00 86 1011.3
20260503235945 55 205 0.0 2.0 0.00 0.00 0.00 86 1011.5
20260503235709 55 119 1.0 2.0 0.00 0.00 0.00 85 1011.3
20260503235611 55 119 0.0 2.0 0.00 0.00 0.00 85 1011.3
20260503235511 55 119 0.0 2.0 0.00 0.00 0.00 85 1011.5
20260503235407 55 178 1.0 2.0 0.00 0.00 0.00 85 1011.5
20260503235311 55 178 1.0 2.0 0.00 0.00 0.00 85 1011.5
20260503235226 55 178 1.0 2.0 0.00 0.00 0.00 85 1011.5
20260503235144 55 221 1.0 2.0 0.00 0.00 0.00 85 1011.6
20260503235106 55 178 1.0 2.0 0.00 0.00 0.00 85 1011.6
20260503234828 55 221 0.0 1.0 0.00 0.00 0.00 85 1011.6
20260503234748 55 265 0.0 1.0 0.00 0.00 0.00 85 1011.5
20260503234708 55 265 0.0 1.0 0.00 0.00 0.00 85 1011.6
20260503234249 55 265 0.0 1.0 0.00 0.00 0.00 85 1011.6
20260503234232 60 301 1.0 4.0 0.00 0.00 0.00 81 1011.8
20260503234204 55 178 0.0 2.0 0.00 0.00 0.00 85 1011.6
20260503234132 55 178 0.0 2.0 0.00 0.00 0.00 85 1011.6
20260503234037 55 178 0.0 2.0 0.00 0.00 0.00 85 1011.5
20260503233956 55 178 0.0 2.0 0.00 0.00 0.00 85 1011.6
20260503233919 56 178 1.0 2.0 0.00 0.00 0.00 85 1011.6
20260503233839 56 212 0.0 2.0 0.00 0.00 0.00 85 1011.6
20260503233605 56 221 1.0 2.0 0.00 0.00 0.00 85 1011.8
20260503233522 56 265 1.0 2.0 0.00 0.00 0.00 85 1011.6
20260503233255 56 232 0.0 2.0 0.00 0.00 0.00 85 1011.7
20260503232828 56 265 0.0 2.0 0.00 0.00 0.00 85 1011.7
20260503232726 56 282 0.0 2.0 0.00 0.00 0.00 85 1011.7
20260503232618 56 282 0.0 2.0 0.00 0.00 0.00 85 1011.7
20260503232601 60 34 2.0 3.0 0.00 0.00 0.00 81 1011.6
20260503232525 56 282 1.0 2.0 0.00 0.00 0.00 85 1011.7
20260503232413 56 309 1.0 2.0 0.00 0.00 0.00 84 1011.7
20260503232313 56 309 1.0 2.0 0.00 0.00 0.00 84 1011.7
20260503232215 56 301 0.0 2.0 0.00 0.00 0.00 84 1011.7
20260503232127 60 67 1.0 3.0 0.00 0.00 0.00 80 1011.7
20260503232114 56 309 0.0 1.0 0.00 0.00 0.00 84 1011.7
20260503232013 56 9 0.0 1.0 0.00 0.00 0.00 84 1011.7
20260503231910 56 196 0.0 1.0 0.00 0.00 0.00 84 1011.8
20260503231809 56 196 0.0 1.0 0.00 0.00 0.00 84 1011.7
20260503231730 56 196 0.0 1.0 0.00 0.00 0.00 84 1011.7
20260503231653 56 196 0.0 1.0 0.00 0.00 0.00 84 1011.7
20260503231619 56 178 0.0 1.0 0.00 0.00 0.00 84 1011.7
20260503231223 60 67 2.0 3.0 0.00 0.00 0.00 81 1011.7
20260503231152 57 221 0.0 2.0 0.00 0.00 0.00 84 1011.8
20260503231048 57 325 0.0 2.0 0.00 0.00 0.00 84 1011.9
20260503230946 57 309 1.0 2.0 0.00 0.00 0.00 84 1011.8
20260503230846 57 334 0.0 2.0 0.00 0.00 0.00 84 1011.9
20260503230744 57 9 0.0 2.0 0.00 0.00 0.00 83 1011.8
20260503230702 57 153 0.0 2.0 0.00 0.00 0.00 83 1011.9
20260503230628 57 153 0.0 2.0 0.00 0.00 0.00 83 1011.8
20260503230441 57 153 1.0 2.0 0.00 0.00 0.00 83 1011.8
20260503230341 57 137 1.0 2.0 0.00 0.00 0.00 83 1011.7
20260503230232 57 126 0.0 1.0 0.00 0.00 0.00 83 1011.7
20260503230137 57 137 0.0 1.0 0.00 0.00 0.00 83 1011.7
20260503230058 57 119 0.0 1.0 0.00 0.00 0.00 83 1011.7
20260503230003 57 161 0.0 1.0 0.00 0.00 0.00 83 1011.8
20260503225927 57 309 0.0 1.0 0.00 0.00 0.00 83 1011.8
20260503225728 57 309 1.0 1.0 0.00 0.00 0.00 83 1011.9
20260503225653 60 76 4.0 9.0 0.00 0.00 0.00 80 1011.6
20260503225622 57 309 1.0 1.0 0.00 0.00 0.00 83 1011.8
20260503225542 60 82 4.0 12.0 0.00 0.00 0.00 80 1011.5
20260503225526 57 319 0.0 2.0 0.00 0.00 0.00 82 1011.9
20260503225422 57 319 0.0 2.0 0.00 0.00 0.00 83 1011.8
20260503225324 57 309 0.0 2.0 0.00 0.00 0.00 83 1011.9
20260503225249 57 309 0.0 2.0 0.00 0.00 0.00 83 1011.8
20260503225055 60 85 7.0 12.0 0.00 0.00 0.00 80 1011.5
20260503225007 58 291 1.0 2.0 0.00 0.00 0.00 83 1011.9
20260503224901 58 309 1.0 2.0 0.00 0.00 0.00 82 1011.8
20260503224843 60 111 4.0 12.0 0.00 0.00 0.00 80 1011.3
20260503224811 58 325 1.0 2.0 0.00 0.00 0.00 82 1011.8
20260503224728 58 325 1.0 2.0 0.00 0.00 0.00 82 1011.8
20260503224644 58 9 1.0 2.0 0.00 0.00 0.00 82 1011.8
20260503224454 58 30 2.0 2.0 0.00 0.00 0.00 82 1011.8
20260503224414 58 19 2.0 2.0 0.00 0.00 0.00 82 1011.7
20260503224332 58 9 2.0 2.0 0.00 0.00 0.00 82 1011.7
20260503224049 58 24 2.0 2.0 0.00 0.00 0.00 82 1011.7
20260503224004 58 19 1.0 2.0 0.00 0.00 0.00 82 1011.8
20260503223923 58 22 1.0 2.0 0.00 0.00 0.00 82 1011.7
20260503223738 58 9 1.0 2.0 0.00 0.00 0.00 82 1011.8
20260503223640 58 338 1.0 2.0 0.00 0.00 0.00 82 1011.8
20260503223628 60 84 6.0 12.0 0.00 0.00 0.00 80 1011.3
20260503223533 58 9 1.0 2.0 0.00 0.00 0.00 82 1011.7
20260503223432 58 41 1.0 2.0 0.00 0.00 0.00 82 1011.8
20260503223419 60 104 6.0 10.0 0.00 0.00 0.00 80 1011.2
20260503223329 58 9 0.0 2.0 0.00 0.00 0.00 82 1011.7
20260503223311 60 93 7.0 12.0 0.00 0.00 0.00 80 1011.2
20260503223230 58 325 0.0 2.0 0.00 0.00 0.00 82 1011.8
20260503223148 58 178 0.0 2.0 0.00 0.00 0.00 82 1011.8
20260503223108 58 221 1.0 2.0 0.00 0.00 0.00 82 1011.9
20260503223029 58 221 1.0 2.0 0.00 0.00 0.00 82 1011.9
20260503222806 58 178 1.0 2.0 0.00 0.00 0.00 82 1011.9
20260503222719 58 137 1.0 2.0 0.00 0.00 0.00 82 1011.9
20260503222635 58 137 1.0 2.0 0.00 0.00 0.00 82 1011.9
20260503222415 59 67 1.0 2.0 0.00 0.00 0.00 82 1011.9
20260503222336 59 80 1.0 2.0 0.00 0.00 0.00 82 1011.9
20260503222251 59 67 1.0 2.0 0.00 0.00 0.00 82 1011.8
20260503221920 59 61 1.0 2.0 0.00 0.00 0.00 82 1011.9
20260503221836 59 85 1.0 2.0 0.00 0.00 0.00 82 1011.9
20260503221801 59 93 1.0 2.0 0.00 0.00 0.00 82 1011.8
20260503221717 59 85 1.0 2.0 0.00 0.00 0.00 82 1011.8
20260503221450 59 76 1.0 2.0 0.00 0.00 0.00 82 1011.8
20260503221228 59 38 1.0 2.0 0.00 0.00 0.00 82 1011.9
20260503221143 59 22 1.0 2.0 0.00 0.00 0.00 82 1011.9
20260503220905 59 342 1.0 3.0 0.00 0.00 0.00 81 1011.9
20260503220832 59 9 1.0 3.0 0.00 0.00 0.00 81 1012.0
20260503220751 59 9 1.0 3.0 0.00 0.00 0.00 81 1011.9
20260503220557 59 325 1.0 3.0 0.00 0.00 0.00 81 1011.9
20260503220455 59 309 1.0 3.0 0.00 0.00 0.00 81 1011.9
20260503220427 61 97 6.0 11.0 0.00 0.00 0.00 80 1011.2
20260503220356 59 325 1.0 3.0 0.00 0.00 0.00 81 1011.8
20260503220255 59 309 2.0 3.0 0.00 0.00 0.00 81 1011.9
20260503220241 61 93 6.0 12.0 0.00 0.00 0.00 80 1011.1
20260503220158 59 301 2.0 3.0 0.00 0.00 0.00 81 1011.9
20260503220139 61 93 4.0 12.0 0.00 0.00 0.00 80 1011.2
20260503220106 59 298 2.0 3.0 0.00 0.00 0.00 81 1011.9
20260503215951 59 300 2.0 3.0 0.00 0.00 0.00 81 1011.9
20260503215851 59 284 2.0 3.0 0.00 0.00 0.00 81 1011.9
20260503215808 61 57 7.0 13.0 0.00 0.00 0.00 80 1011.0
20260503215716 61 59 7.0 13.0 0.00 0.00 0.00 80 1011.0
20260503215649 59 295 2.0 2.0 0.00 0.00 0.00 81 1011.9
20260503215546 59 298 1.0 2.0 0.00 0.00 0.00 81 1011.9
20260503215446 59 316 1.0 2.0 0.00 0.00 0.00 81 1011.9
20260503215430 61 97 6.0 16.0 0.00 0.00 0.00 79 1011.0
20260503215346 59 344 1.0 3.0 0.00 0.00 0.00 81 1011.8
20260503215307 60 341 1.0 3.0 0.00 0.00 0.00 81 1011.8
20260503215223 60 341 1.0 3.0 0.00 0.00 0.00 81 1011.8
20260503214940 60 338 1.0 4.0 0.00 0.00 0.00 81 1011.8
20260503214837 60 9 2.0 4.0 0.00 0.00 0.00 81 1011.8
20260503214735 60 17 2.0 4.0 0.00 0.00 0.00 81 1011.8
20260503214636 60 63 1.0 4.0 0.00 0.00 0.00 81 1011.7
20260503214534 60 57 1.0 4.0 0.00 0.00 0.00 81 1011.7
20260503214434 60 63 1.0 4.0 0.00 0.00 0.00 81 1011.6
20260503214408 61 103 6.0 13.0 0.00 0.00 0.00 79 1010.8
20260503214331 60 41 2.0 4.0 0.00 0.00 0.00 81 1011.7
20260503214233 60 150 2.0 4.0 0.00 0.00 0.00 81 1011.6
20260503214149 60 111 2.0 4.0 0.00 0.00 0.00 81 1011.6
20260503214107 60 111 2.0 3.0 0.00 0.00 0.00 81 1011.6
20260503213825 60 19 1.0 2.0 0.00 0.00 0.00 81 1011.7
20260503213750 61 106 4.0 12.0 0.00 0.00 0.00 79 1010.7
20260503213725 60 325 1.0 2.0 0.00 0.00 0.00 81 1011.7
20260503213708 61 100 2.0 12.0 0.00 0.00 0.00 79 1010.8
20260503213624 60 19 1.0 2.0 0.00 0.00 0.00 81 1011.7
20260503213521 60 61 1.0 2.0 0.00 0.00 0.00 80 1011.8
20260503213428 61 88 5.0 12.0 0.00 0.00 0.00 78 1010.6
20260503213421 60 46 2.0 2.0 0.00 0.00 0.00 80 1011.8
20260503213319 60 43 1.0 2.0 0.00 0.00 0.00 80 1011.7
20260503213219 60 19 1.0 2.0 0.00 0.00 0.00 80 1011.8
20260503213117 60 9 1.0 2.0 0.00 0.00 0.00 80 1011.8
20260503213040 60 9 1.0 2.0 0.00 0.00 0.00 80 1011.7
20260503212956 60 63 1.0 2.0 0.00 0.00 0.00 80 1011.8
20260503212734 62 81 8.0 17.0 0.00 0.00 0.00 78 1010.5
20260503212712 60 80 1.0 3.0 0.00 0.00 0.00 80 1011.7
20260503212612 60 80 1.0 3.0 0.00 0.00 0.00 80 1011.7
20260503212512 60 51 1.0 3.0 0.00 0.00 0.00 81 1011.7
20260503212408 60 51 1.0 3.0 0.00 0.00 0.00 81 1011.7
20260503212340 62 90 8.0 17.0 0.00 0.00 0.00 77 1010.6
20260503212307 60 59 0.0 3.0 0.00 0.00 0.00 81 1011.8
20260503212206 60 67 0.0 3.0 0.00 0.00 0.00 81 1011.8
20260503212106 60 61 1.0 3.0 0.00 0.00 0.00 81 1011.8
20260503212008 60 9 2.0 3.0 0.00 0.00 0.00 81 1011.8
20260503211925 60 83 1.0 3.0 0.00 0.00 0.00 81 1011.7
20260503211843 60 34 2.0 3.0 0.00 0.00 0.00 81 1011.7
20260503211604 60 55 2.0 3.0 0.00 0.00 0.00 81 1011.8
20260503211458 60 70 1.0 3.0 0.00 0.00 0.00 81 1011.7
20260503211434 62 92 8.0 13.0 0.00 0.00 0.00 76 1010.3
20260503211409 62 69 8.0 13.0 0.00 0.00 0.00 76 1010.4
20260503211356 60 93 2.0 3.0 0.00 0.00 0.00 81 1011.7
20260503211255 60 111 2.0 4.0 0.00 0.00 0.00 81 1011.7
20260503211237 62 70 8.0 13.0 0.00 0.00 0.00 76 1010.3
20260503211207 60 93 2.0 4.0 0.00 0.00 0.00 81 1011.7
20260503211056 60 103 2.0 4.0 0.00 0.00 0.00 81 1011.7
20260503210951 60 80 1.0 4.0 0.00 0.00 0.00 81 1011.7
20260503210849 60 67 1.0 4.0 0.00 0.00 0.00 81 1011.6
20260503210749 60 61 2.0 4.0 0.00 0.00 0.00 81 1011.7
20260503210734 62 88 9.0 15.0 0.00 0.00 0.00 76 1010.4
20260503210648 60 76 1.0 4.0 0.00 0.00 0.00 81 1011.6
20260503210550 60 85 2.0 4.0 0.00 0.00 0.00 81 1011.6
20260503210507 60 72 2.0 4.0 0.00 0.00 0.00 81 1011.7
20260503210426 60 99 2.0 4.0 0.00 0.00 0.00 81 1011.6
20260503210220 62 111 8.0 16.0 0.00 0.00 0.00 76 1010.3
20260503210143 60 108 2.0 5.0 0.00 0.00 0.00 80 1011.6
20260503210056 60 144 2.0 5.0 0.00 0.00 0.00 80 1011.5
20260503205939 60 93 2.0 7.0 0.00 0.00 0.00 80 1011.6
20260503205833 60 137 2.0 8.0 0.00 0.00 0.00 80 1011.5
20260503205733 60 86 2.0 8.0 0.00 0.00 0.00 80 1011.6
20260503205654 60 101 2.0 9.0 0.00 0.00 0.00 80 1011.5
20260503205607 60 93 2.0 9.0 0.00 0.00 0.00 80 1011.6
20260503205335 60 57 2.0 9.0 0.00 0.00 0.00 80 1011.6
20260503205252 60 108 2.0 9.0 0.00 0.00 0.00 80 1011.6
20260503205212 60 86 3.0 9.0 0.00 0.00 0.00 80 1011.6
20260503204937 60 111 4.0 9.0 0.00 0.00 0.00 80 1011.5
20260503204853 60 93 4.0 12.0 0.00 0.00 0.00 80 1011.6
20260503204614 60 74 4.0 12.0 0.00 0.00 0.00 80 1011.5
20260503204530 60 69 4.0 12.0 0.00 0.00 0.00 80 1011.5
20260503204445 60 59 5.0 12.0 0.00 0.00 0.00 80 1011.5
20260503204405 60 67 4.0 12.0 0.00 0.00 0.00 80 1011.5
20260503204324 60 97 4.0 12.0 0.00 0.00 0.00 80 1011.3
20260503204239 60 140 6.0 12.0 0.00 0.00 0.00 80 1011.3
20260503204011 60 111 5.0 12.0 0.00 0.00 0.00 80 1011.3
20260503203928 60 77 4.0 12.0 0.00 0.00 0.00 80 1011.3
20260503203848 60 63 4.0 12.0 0.00 0.00 0.00 80 1011.5
20260503203802 60 119 5.0 12.0 0.00 0.00 0.00 80 1011.3
20260503203723 60 69 4.0 12.0 0.00 0.00 0.00 80 1011.3
20260503203320 60 57 4.0 12.0 0.00 0.00 0.00 80 1011.3
20260503203052 60 69 8.0 12.0 0.00 0.00 0.00 80 1011.3
20260503202820 60 82 4.0 11.0 0.00 0.00 0.00 80 1011.3
20260503202742 60 88 3.0 10.0 0.00 0.00 0.00 80 1011.2
20260503202653 60 153 4.0 10.0 0.00 0.00 0.00 80 1011.2
20260503202610 60 83 6.0 10.0 0.00 0.00 0.00 80 1011.2
20260503202347 60 88 5.0 10.0 0.00 0.00 0.00 80 1011.2
20260503202307 60 88 6.0 10.0 0.00 0.00 0.00 80 1011.2
20260503202039 60 84 6.0 12.0 0.00 0.00 0.00 80 1011.2
20260503201808 60 78 5.0 12.0 0.00 0.00 0.00 80 1011.2
20260503201728 60 79 4.0 12.0 0.00 0.00 0.00 80 1011.2
20260503201458 61 115 4.0 12.0 0.00 0.00 0.00 80 1011.2
20260503201406 60 88 7.0 12.0 0.00 0.00 0.00 80 1011.2
20260503201325 60 102 8.0 12.0 0.00 0.00 0.00 80 1011.2
20260503201053 61 63 5.0 10.0 0.00 0.00 0.00 80 1011.2
20260503201011 61 93 4.0 10.0 0.00 0.00 0.00 80 1011.2
20260503200926 61 116 4.0 10.0 0.00 0.00 0.00 80 1011.2
20260503200705 61 96 6.0 12.0 0.00 0.00 0.00 80 1011.1
20260503200418 61 69 5.0 12.0 0.00 0.00 0.00 80 1011.1
20260503200337 61 104 5.0 12.0 0.00 0.00 0.00 80 1011.1
20260503200256 61 74 6.0 12.0 0.00 0.00 0.00 80 1011.0
20260503200212 61 111 5.0 13.0 0.00 0.00 0.00 80 1011.0
20260503195926 61 108 8.0 13.0 0.00 0.00 0.00 80 1011.0
20260503195844 61 75 7.0 13.0 0.00 0.00 0.00 80 1011.0
20260503195601 61 78 7.0 13.0 0.00 0.00 0.00 80 1011.0
20260503195500 61 88 8.0 16.0 0.00 0.00 0.00 80 1010.9
20260503195402 61 96 8.0 16.0 0.00 0.00 0.00 80 1010.9
20260503195322 61 117 6.0 16.0 0.00 0.00 0.00 80 1011.0
20260503195240 61 79 5.0 16.0 0.00 0.00 0.00 79 1011.0
20260503194952 61 96 7.0 16.0 0.00 0.00 0.00 79 1011.0
20260503194852 61 93 7.0 16.0 0.00 0.00 0.00 79 1010.9
20260503194808 61 80 8.0 20.0 0.00 0.00 0.00 79 1011.0
20260503194723 61 116 9.0 20.0 0.00 0.00 0.00 79 1011.0
20260503194639 61 69 8.0 20.0 0.00 0.00 0.00 79 1010.9
20260503194551 61 131 7.0 20.0 0.00 0.00 0.00 79 1010.9
20260503194344 61 84 5.0 20.0 0.00 0.00 0.00 79 1010.9
20260503194243 61 81 6.0 20.0 0.00 0.00 0.00 79 1010.9
20260503194215 63 84 6.0 11.0 0.00 0.00 0.00 77 1010.8
20260503194145 61 57 7.0 20.0 0.00 0.00 0.00 79 1010.9
20260503194041 61 111 9.0 20.0 0.00 0.00 0.00 79 1010.9
20260503194023 63 86 7.0 15.0 0.00 0.00 0.00 77 1010.8
20260503193941 61 103 8.0 20.0 0.00 0.00 0.00 79 1010.9
20260503193837 61 116 8.0 20.0 0.00 0.00 0.00 79 1010.9
20260503193809 63 43 7.0 15.0 0.00 0.00 0.00 78 1010.9
20260503193738 61 72 7.0 13.0 0.00 0.00 0.00 79 1010.8
20260503193638 61 102 7.0 13.0 0.00 0.00 0.00 79 1010.8
20260503193535 61 117 8.0 13.0 0.00 0.00 0.00 79 1010.9
20260503193438 61 87 8.0 13.0 0.00 0.00 0.00 79 1010.9
20260503193357 61 80 6.0 13.0 0.00 0.00 0.00 79 1010.8
20260503193314 61 113 5.0 13.0 0.00 0.00 0.00 79 1010.8
20260503193108 62 65 6.0 13.0 0.00 0.00 0.00 79 1011.0
20260503193030 61 93 7.0 13.0 0.00 0.00 0.00 79 1010.8
20260503192927 61 108 8.0 13.0 0.00 0.00 0.00 79 1010.8
20260503192834 61 144 8.0 13.0 0.00 0.00 0.00 79 1010.8
20260503192751 61 88 7.0 13.0 0.00 0.00 0.00 79 1010.8
20260503192709 61 79 5.0 11.0 0.00 0.00 0.00 79 1010.7
20260503192626 61 87 3.0 11.0 0.00 0.00 0.00 79 1010.8
20260503192541 61 83 4.0 12.0 0.00 0.00 0.00 79 1010.7
20260503192136 62 69 7.0 13.0 0.00 0.00 0.00 79 1011.0
20260503192118 61 111 3.0 12.0 0.00 0.00 0.00 79 1010.8
20260503192016 61 97 4.0 12.0 0.00 0.00 0.00 79 1010.7
20260503191915 61 83 4.0 12.0 0.00 0.00 0.00 79 1010.7
20260503191816 61 84 5.0 12.0 0.00 0.00 0.00 79 1010.7
20260503191734 61 74 6.0 12.0 0.00 0.00 0.00 78 1010.7
20260503191652 61 63 5.0 12.0 0.00 0.00 0.00 78 1010.8
20260503191409 61 101 4.0 13.0 0.00 0.00 0.00 78 1010.6
20260503191308 62 79 5.0 14.0 0.00 0.00 0.00 78 1010.6
20260503191207 62 109 6.0 17.0 0.00 0.00 0.00 78 1010.6
20260503191108 62 75 6.0 17.0 0.00 0.00 0.00 78 1010.6
20260503191058 63 57 8.0 15.0 0.00 0.00 0.00 79 1011.1
20260503191023 63 15 8.0 15.0 0.00 0.00 0.00 79 1011.1
20260503191005 62 105 5.0 17.0 0.00 0.00 0.00 78 1010.5
20260503190902 62 48 5.0 17.0 0.00 0.00 0.00 78 1010.5
20260503190803 62 65 6.0 17.0 0.00 0.00 0.00 78 1010.5
20260503190723 62 86 6.0 17.0 0.00 0.00 0.00 78 1010.4
20260503190640 62 106 8.0 17.0 0.00 0.00 0.00 77 1010.5
20260503190403 62 101 8.0 17.0 0.00 0.00 0.00 78 1010.4
20260503190319 62 57 6.0 14.0 0.00 0.00 0.00 78 1010.5
20260503190241 62 88 5.0 14.0 0.00 0.00 0.00 77 1010.6
20260503190143 62 76 7.0 14.0 0.00 0.00 0.00 77 1010.4
20260503185949 62 86 9.0 15.0 0.00 0.00 0.00 77 1010.5
20260503185929 63 85 9.0 17.0 0.00 0.00 0.00 78 1011.1
20260503185854 62 61 8.0 15.0 0.00 0.00 0.00 77 1010.4
20260503185811 62 65 6.0 15.0 0.00 0.00 0.00 77 1010.5
20260503185731 62 88 6.0 15.0 0.00 0.00 0.00 77 1010.5
20260503185449 62 74 7.0 17.0 0.00 0.00 0.00 77 1010.5
20260503185433 63 59 9.0 17.0 0.00 0.00 0.00 78 1011.1
20260503185346 62 74 7.0 17.0 0.00 0.00 0.00 77 1010.4
20260503185245 62 101 10.0 17.0 0.00 0.00 0.00 76 1010.5
20260503185215 64 34 10.0 15.0 0.00 0.00 0.00 77 1011.1
20260503185148 62 80 10.0 17.0 0.00 0.00 0.00 76 1010.5
20260503185043 62 88 10.0 17.0 0.00 0.00 0.00 76 1010.4
20260503185003 64 67 8.0 16.0 0.00 0.00 0.00 77 1011.0
20260503184938 62 77 11.0 17.0 0.00 0.00 0.00 76 1010.4
20260503184916 64 72 8.0 16.0 0.00 0.00 0.00 77 1011.0
20260503184840 62 61 11.0 17.0 0.00 0.00 0.00 76 1010.4
20260503184736 62 71 9.0 17.0 0.00 0.00 0.00 76 1010.4
20260503184656 62 51 7.0 13.0 0.00 0.00 0.00 76 1010.3
20260503184613 62 104 8.0 13.0 0.00 0.00 0.00 76 1010.4
20260503184522 62 53 7.0 13.0 0.00 0.00 0.00 76 1010.4
20260503184444 62 63 7.0 13.0 0.00 0.00 0.00 76 1010.5
20260503184402 62 49 7.0 13.0 0.00 0.00 0.00 76 1010.4
20260503183951 62 50 8.0 13.0 0.00 0.00 0.00 76 1010.3
20260503183911 62 65 8.0 13.0 0.00 0.00 0.00 76 1010.3
20260503183627 62 59 8.0 15.0 0.00 0.00 0.00 76 1010.3
20260503183524 62 106 6.0 15.0 0.00 0.00 0.00 76 1010.3
20260503183426 62 87 7.0 15.0 0.00 0.00 0.00 76 1010.4
20260503183323 62 97 7.0 15.0 0.00 0.00 0.00 76 1010.4
20260503183230 62 86 6.0 15.0 0.00 0.00 0.00 76 1010.4
20260503183214 66 107 9.0 16.0 0.00 0.00 0.00 73 1010.9
20260503183152 66 85 10.0 16.0 0.00 0.00 0.00 73 1010.9
20260503183121 62 117 6.0 15.0 0.00 0.00 0.00 76 1010.4
20260503183057 66 61 9.0 17.0 0.00 0.00 0.00 73 1010.9
20260503183024 62 97 5.0 15.0 0.00 0.00 0.00 76 1010.3
20260503182941 62 87 7.0 15.0 0.00 0.00 0.00 76 1010.4
20260503182859 62 92 10.0 15.0 0.00 0.00 0.00 76 1010.4
20260503182630 62 50 7.0 15.0 0.00 0.00 0.00 76 1010.4
20260503182545 62 69 5.0 15.0 0.00 0.00 0.00 76 1010.4
20260503182501 62 78 6.0 15.0 0.00 0.00 0.00 76 1010.3
20260503182238 62 63 9.0 16.0 0.00 0.00 0.00 76 1010.4
20260503182158 62 96 9.0 16.0 0.00 0.00 0.00 76 1010.3
20260503182006 62 67 9.0 16.0 0.00 0.00 0.00 76 1010.3
20260503181904 63 69 6.0 16.0 0.00 0.00 0.00 76 1010.3
20260503181803 63 63 9.0 16.0 0.00 0.00 0.00 76 1010.4
20260503181721 63 63 9.0 16.0 0.00 0.00 0.00 76 1010.3
20260503181641 63 110 10.0 16.0 0.00 0.00 0.00 76 1010.3
20260503181555 63 74 11.0 16.0 0.00 0.00 0.00 76 1010.3
20260503181510 63 103 10.0 16.0 0.00 0.00 0.00 76 1010.2
20260503181248 63 57 12.0 16.0 0.00 0.00 0.00 75 1010.2
20260503181058 63 67 10.0 17.0 0.00 0.00 0.00 75 1010.2
20260503180955 63 80 9.0 17.0 0.00 0.00 0.00 75 1010.3
20260503180853 63 116 9.0 17.0 0.00 0.00 0.00 75 1010.3
20260503180815 63 74 8.0 17.0 0.00 0.00 0.00 75 1010.3
20260503180733 63 98 6.0 17.0 0.00 0.00 0.00 76 1010.3
20260503180448 63 144 8.0 17.0 0.00 0.00 0.00 76 1010.4
20260503180347 63 84 9.0 17.0 0.00 0.00 0.00 75 1010.3
20260503180250 63 98 10.0 17.0 0.00 0.00 0.00 75 1010.4
20260503180209 63 104 8.0 17.0 0.00 0.00 0.00 76 1010.3
20260503180130 63 34 9.0 15.0 0.00 0.00 0.00 76 1010.4
20260503180028 63 107 9.0 15.0 0.00 0.00 0.00 76 1010.4
20260503175942 63 93 8.0 16.0 0.00 0.00 0.00 76 1010.5
20260503175719 63 128 9.0 17.0 0.00 0.00 0.00 76 1010.6
20260503175511 67 63 8.0 18.0 0.00 0.00 0.00 69 1011.2
20260503175436 63 102 4.0 17.0 0.00 0.00 0.00 76 1010.5
20260503175404 67 67 10.0 18.0 0.00 0.00 0.00 68 1011.2
20260503175332 63 56 6.0 17.0 0.00 0.00 0.00 76 1010.5
20260503175250 63 117 8.0 17.0 0.00 0.00 0.00 75 1010.6
20260503175210 63 131 8.0 17.0 0.00 0.00 0.00 75 1010.6
20260503174929 63 107 11.0 17.0 0.00 0.00 0.00 75 1010.6
20260503174910 67 139 9.0 18.0 0.00 0.00 0.00 67 1011.2
20260503174838 63 63 11.0 17.0 0.00 0.00 0.00 75 1010.6
20260503174753 63 90 10.0 15.0 0.00 0.00 0.00 75 1010.6
20260503174713 63 137 7.0 15.0 0.00 0.00 0.00 76 1010.7
20260503174634 63 112 8.0 12.0 0.00 0.00 0.00 76 1010.6
20260503174406 63 95 8.0 15.0 0.00 0.00 0.00 76 1010.8
20260503174145 63 86 6.0 15.0 0.00 0.00 0.00 77 1010.7
20260503174101 63 90 7.0 15.0 0.00 0.00 0.00 77 1010.8
20260503173815 63 116 6.0 15.0 0.00 0.00 0.00 77 1010.8
20260503173752 67 113 8.0 17.0 0.00 0.00 0.00 68 1011.3
20260503173718 63 40 6.0 15.0 0.00 0.00 0.00 77 1010.7
20260503173637 63 72 8.0 15.0 0.00 0.00 0.00 76 1010.8
20260503173553 63 61 7.0 15.0 0.00 0.00 0.00 77 1010.7
20260503173358 67 123 8.0 17.0 0.00 0.00 0.00 68 1011.2
20260503173309 63 59 5.0 13.0 0.00 0.00 0.00 77 1010.6
20260503173209 63 71 4.0 13.0 0.00 0.00 0.00 77 1010.7
20260503173108 63 107 4.0 13.0 0.00 0.00 0.00 77 1010.7
20260503173024 67 99 9.0 20.0 0.00 0.00 0.00 67 1011.3
20260503173001 63 49 4.0 13.0 0.00 0.00 0.00 77 1010.7
20260503172936 67 82 11.0 20.0 0.00 0.00 0.00 66 1011.5
20260503172900 63 65 7.0 13.0 0.00 0.00 0.00 77 1010.6
20260503172831 67 115 12.0 22.0 0.00 0.00 0.00 66 1011.3
20260503172800 63 42 8.0 13.0 0.00 0.00 0.00 77 1010.7
20260503172659 63 75 7.0 17.0 0.00 0.00 0.00 77 1010.8
20260503172614 68 75 10.0 22.0 0.00 0.00 0.00 66 1011.3
20260503172559 63 74 6.0 17.0 0.00 0.00 0.00 77 1010.6
20260503172456 63 53 5.0 17.0 0.00 0.00 0.00 77 1010.8
20260503172402 63 77 4.0 17.0 0.00 0.00 0.00 78 1010.7
20260503172321 63 85 3.0 17.0 0.00 0.00 0.00 77 1010.7
20260503172239 63 74 4.0 17.0 0.00 0.00 0.00 77 1010.8
20260503172200 63 61 6.0 17.0 0.00 0.00 0.00 76 1010.7
20260503171933 63 80 9.0 17.0 0.00 0.00 0.00 76 1010.7
20260503171851 63 67 6.0 17.0 0.00 0.00 0.00 77 1010.8
20260503171705 63 78 5.0 11.0 0.00 0.00 0.00 77 1010.7
20260503171623 63 65 5.0 11.0 0.00 0.00 0.00 78 1010.7
20260503171535 63 67 5.0 11.0 0.00 0.00 0.00 77 1010.8
20260503171312 63 77 7.0 11.0 0.00 0.00 0.00 77 1010.8
20260503171233 63 72 8.0 11.0 0.00 0.00 0.00 77 1010.8
20260503170939 63 75 5.0 15.0 0.00 0.00 0.00 78 1010.8
20260503170924 69 82 12.0 18.0 0.00 0.00 0.00 65 1011.6
20260503170849 63 67 5.0 15.0 0.00 0.00 0.00 78 1010.8
20260503170808 63 48 6.0 15.0 0.00 0.00 0.00 78 1010.9
20260503170729 63 71 6.0 15.0 0.00 0.00 0.00 78 1010.8
20260503170432 63 78 6.0 15.0 0.00 0.00 0.00 78 1010.8
20260503170403 69 56 6.0 18.0 0.00 0.00 0.00 68 1011.5
20260503170333 63 100 8.0 15.0 0.00 0.00 0.00 78 1010.8
20260503170321 69 101 6.0 18.0 0.00 0.00 0.00 68 1011.6
20260503170231 63 82 8.0 15.0 0.00 0.00 0.00 78 1010.8
20260503170142 63 61 6.0 15.0 0.00 0.00 0.00 79 1010.8
20260503160129 72 77 13.0 19.0 0.00 0.00 0.00 60 1012.2
20260503160116 65 55 10.0 16.0 0.00 0.00 0.00 75 1010.9
20260503150950 67 90 13.0 18.0 0.00 0.00 0.00 67 1011.2
20260503150715 67 93 9.0 17.0 0.00 0.00 0.00 67 1011.2
20260503150633 67 111 9.0 17.0 0.00 0.00 0.00 68 1011.2
20260503150201 67 107 8.0 17.0 0.00 0.00 0.00 68 1011.3
20260503150144 70 56 10.0 19.0 0.00 0.00 0.00 67 1012.6
20260503150117 67 83 9.0 17.0 0.00 0.00 0.00 67 1011.2
20260503140240 69 90 6.0 14.0 0.00 0.00 0.00 64 1011.6
20260503140158 69 126 6.0 14.0 0.00 0.00 0.00 64 1011.7
20260503140119 69 81 7.0 14.0 0.00 0.00 0.00 64 1011.7
20260503131350 71 167 11.0 18.0 0.00 0.00 0.00 61 1012.3
20260503131128 71 83 6.0 18.0 0.00 0.00 0.00 61 1012.4
20260503131046 71 79 8.0 18.0 0.00 0.00 0.00 62 1012.3
20260503130817 71 104 9.0 18.0 0.00 0.00 0.00 60 1012.3
20260503130535 72 69 8.0 17.0 0.00 0.00 0.00 61 1012.4
20260503130434 72 133 9.0 17.0 0.00 0.00 0.00 61 1012.4
20260503130332 72 104 8.0 17.0 0.00 0.00 0.00 60 1012.4
20260503130248 72 107 8.0 17.0 0.00 0.00 0.00 60 1012.5
20260503130155 72 117 10.0 17.0 0.00 0.00 0.00 60 1012.4
20260503130112 73 97 11.0 19.0 0.00 0.00 0.00 61 1012.4